This is the latest recevied weather packets stored in our database for station/object YO8PIC-13. If no packets are shown the sender has not sent any weather packets the latest 10 day(s).
| Time | Temp. | Humidity | Pressure | Rain* | Wind** | Luminosity | Snow |
|---|---|---|---|---|---|---|---|
| 1788543490 | 23.89° C | 44% | 1016.8 hPa | - | - | - | - |
| 1788542890 | 23.89° C | 42% | 1016.8 hPa | - | - | - | - |
| 1788542290 | 23.89° C | 42% | 1016.6 hPa | - | - | - | - |
| 1788541692 | 24.44° C | 41% | 1016.4 hPa | - | - | - | - |
| 1788541090 | 24.44° C | 40% | 1016.4 hPa | - | - | - | - |
| 1788540491 | 25° C | 39% | 1016.3 hPa | - | - | - | - |
| 1788539891 | 25.56° C | 36% | 1016.3 hPa | - | - | - | - |
| 1788539290 | 26.11° C | 35% | 1016.3 hPa | - | - | - | - |
| 1788538690 | 26.67° C | 33% | 1016.4 hPa | - | - | - | - |
| 1788538090 | 27.78° C | 31% | 1016.4 hPa | - | - | - | - |
| 1788537490 | 28.33° C | 29% | 1016.3 hPa | - | - | - | - |
| 1788536891 | 28.33° C | 29% | 1016.3 hPa | - | - | - | - |
| 1788536290 | 28.33° C | 28% | 1016.3 hPa | - | - | - | - |
| 1788535691 | 28.89° C | 26% | 1016.3 hPa | - | - | - | - |
| 1788535090 | 29.44° C | 26% | 1016.4 hPa | - | - | - | - |
| 1788534490 | 29.44° C | 24% | 1016.4 hPa | - | - | - | - |
| 1788533890 | 30.56° C | 23% | 1016.3 hPa | - | - | - | - |
| 1788532853 | 32.22° C | 21% | 1016.4 hPa | - | - | - | - |
| 1788532252 | 33.89° C | 18% | 1016.2 hPa | - | - | - | - |
| 1788531651 | 36.67° C | 15% | 1016.1 hPa | - | - | - | - |
| 1788531052 | 38.33° C | 13% | 1016.4 hPa | - | - | - | - |
| 1788530451 | 37.22° C | 15% | 1016.5 hPa | - | - | - | - |
| 1788529851 | 40° C | 12% | 1016.4 hPa | - | - | - | - |
| 1788529252 | 38.33° C | 14% | 1016.4 hPa | - | - | - | - |
| 1788528652 | 40.56° C | 12% | 1016.2 hPa | - | - | - | - |
* Rain since midnight (hover to see other rain measurements)
** Current wind speed in m/s (hover to see current wind gust speed)